Regional Weather Roundup
Issued by NWS

Home | Current Version | Previous Version | Graphics & Text | Print | Product List | Glossary On
Versions: 1 2 3 4 5 6 7 8 9 10 11 12 13 14 15 16 17 18 19 20 21 22 23 24 25 26 27 28 29
000
ASUS45 KCYS 242310
RWRWY

WYOMING REGIONAL WEATHER ROUNDUP
NATIONAL WEATHER SERVICE CHEYENNE WY
500 PM MDT FRI OCT 24 2014

NOTE:  "FAIR" INDICATES FEW OR NO CLOUDS BELOW 12,000 FEET
WITH NO SIGNIFICANT WEATHER AND/OR OBSTRUCTIONS TO VISIBILITY.

WYZ001-250000-
YELLOWSTONE NATIONAL PARK

CITY           SKY/WX    TMP DP  RH WIND       PRES   REMARKS
LK YELLOWSTONE   N/A     53  23  31 VRB6G20   30.23
W YELLOWSTONE  NOT AVBL

$$
WYZ002>013-054>058-071-098>099-250000-
NORTHERN WYOMING

CITY           SKY/WX    TMP DP  RH WIND       PRES   REMARKS
JACKSON        SUNNY     64  25  22 SW16      30.17S
CODY           MOSUNNY   63  36  36 NE14G21   30.04S
GREYBULL       MOSUNNY   75  27  17 NW8       29.98R
WORLAND        SUNNY     77  28  16 CALM      29.98S
SHERIDAN       MOSUNNY   62  34  35 N10       30.05R
BUFFALO          N/A     62  31  31 N8        30.09R
GILLETTE       CLEAR     63  34  33 NE10      30.06R
HULETT         FAIR      63  32  31 N8        30.08
NEWCASTLE      FAIR      72  25  17 CALM      30.03

$$
WYZ014>020-022>026-101>103-250000-
CENTRAL WYOMING

CITY           SKY/WX    TMP DP  RH WIND       PRES   REMARKS
BIG PINEY      SUNNY     65  19  17 W22       30.24R
PINEDALE       CLEAR     64  18  16 W9        30.23R
DUBOIS         FAIR      61  18  18 W22G29    30.16S
LANDER         SUNNY     74  19  12 W6        30.07S
RIVERTON       SUNNY     74  19  12 W20       30.07S
CASPER         SUNNY     73  18  12 SW21      30.08S
DOUGLAS        SUNNY     76  20  12 W17G23    30.08R

$$
WYZ021-027>030-104>119-250000-
SOUTHERN WYOMING

CITY           SKY/WX    TMP DP  RH WIND       PRES   REMARKS
EVANSTON       SUNNY     67  24  19 W16       30.25S
KEMMERER       CLEAR     64  18  16 W15G22    30.26S
FORT BRIDGER   FAIR      71  24  17 W17G23    30.27S
ROCK SPRINGS   SUNNY     67  22  18 SW12      30.23S
RAWLINS        SUNNY     67  25  20 SW17G25   30.23F
SARATOGA       FAIR      66  21  18 SW21G28   30.28R
LARAMIE        SUNNY     68  20  16 W15       30.25R
CHEYENNE       SUNNY     74  18  12 W12G25    30.18R
TORRINGTON     CLEAR     80  23  12 W17       30.03S
PINE BLUFFS    FAIR      77  23  13 W9        30.12S

$$



USA.gov is the U.S. government's official web portal to all federal, state and local government web resources and services.